sat.trackr.live / text

‹ back to catalog

STARLINK-36130

NORAD 66931 · 2025-286G

PAYLOAD ACTIVE UNKNOWN

§ Identity

Operator
Country
US
Launch date
2025-12-07
Launch site
AFWTR
Launch vehicle
Mass (kg)
RCS (m²)

Purposes: comms

External: N2YO · Heavens-Above · Gunter

§ Orbital elements

Epoch: 2026-05-24T23:37:39.919584Z

Period
93.85 min
Inclination
53.1594°
Eccentricity
0.0000966
Mean motion
15.34401920 rev/d
Perigee alt
462.0 km
Apogee alt
463.4 km
Semi-major
6,840.8 km
B*
5.9646e-4
RAAN
3.6612°
Arg perigee
91.4388°
Mean anomaly
268.6725°
Rev number
2,710

§ Raw data

STARLINK-361301 66931U 25286G   26144.98448981  .00019831  00000+0  59646-3 0  99902 66931  53.1594   3.6612 0000966  91.4388 268.6725 15.34401920 27101

JSON: /api/v1/satellites/66931 · /tle

For live sub-satellite position, see the globe view (requires WebGL).

§ Visibility from observer

Set your observer location to see the next 7 days of passes ≥ 10°. The values pass through the URL so the page stays shareable.

No JS? Fill the form by hand. The geolocation button needs JavaScript.